Location: Unnamed
(47.6264°N, 122.3366°W)
Time: 13:04:12
(UTC-07:00)

UPPER FREE FLYER - Pass Details

Date: 05 August 2020
Orbit: 571 x 589 km, 97.7° (Epoch: 01 October)

Event Time Altitude Azimuth Distance (km) Brightness Sun altitude
Exits shadow 21:55:11 15° 107° (ESE) 1,577 ? -11.8°
Maximum altitude 21:57:24 23° 65° (ENE) 1,243 ? -12.1°
Drops below altitude 10° 22:00:38 10° 13° (NNE) 1,894 ? -12.5°
Sets 22:03:07 0° 359° (N) 2,800 ? -12.8°
